FW7881 Weather Reports


Display with metric or nautical units.
time (UTC)temp
F
wind
direction
speed
MPH
gust
MPH
rain 1hr
in
rain 24hr
in
rain mn
in
humidity
%
barometer
mb
20260901063050 67 0 0.0 0.0 0.00 0.00 0.00 89 1014.2
20260901061600 68 0 0.0 0.0 0.00 0.00 0.00 87 1014.3
20260901060057 68 0 0.0 0.0 0.00 0.00 0.00 87 1014.1
20260901054556 68 0 0.0 0.0 0.00 0.00 0.00 87 1014.0
20260901053114 69 0 0.0 0.0 0.00 0.00 0.00 85 1013.8
20260901051559 70 0 0.0 0.0 0.00 0.00 0.00 85 1013.6
20260901050056 69 0 0.0 0.0 0.00 0.00 0.00 85 1013.6
20260901044620 70 0 0.0 0.0 0.00 0.00 0.00 85 1013.3
20260901043102 70 0 0.0 0.0 0.00 0.00 0.00 83 1013.1
20260901041558 71 0 0.0 0.0 0.00 0.00 0.00 83 1013.1
20260901040105 71 0 0.0 0.0 0.00 0.00 0.00 82 1013.2
20260901034607 71 0 0.0 0.0 0.00 0.00 0.00 82 1013.3
20260901033056 71 0 0.0 0.0 0.00 0.00 0.00 83 1013.4
20260901031559 72 0 0.0 0.0 0.00 0.00 0.00 81 1013.1
20260901030100 72 0 0.0 0.0 0.00 0.00 0.00 80 1013.1
20260901024552 72 0 0.0 0.0 0.00 0.00 0.00 79 1013.1
20260901023058 73 0 0.0 0.0 0.00 0.00 0.00 79 1013.1
20260901021619 73 0 0.0 0.0 0.00 0.00 0.00 78 1012.7
20260901020112 74 0 0.0 0.0 0.00 0.00 0.00 76 1012.9
20260901014558 75 0 0.0 0.0 0.00 0.00 0.00 74 1012.7
20260901013054 76 0 0.0 0.0 0.00 0.00 0.00 72 1012.6
20260901011557 77 0 0.0 0.0 0.00 0.00 0.00 70 1012.3
20260901010100 78 0 0.0 0.0 0.00 0.00 0.00 66 1012.3
20260901004555 80 0 0.0 0.0 0.00 0.00 0.00 66 1012.2
20260901003123 82 0 0.0 0.0 0.00 0.00 0.00 61 1012.0
20260901001608 83 308 0.0 2.0 0.00 0.00 0.00 58 1012.1
20260901000059 83 331 1.0 3.0 0.00 0.00 0.00 57 1011.9
20260831234601 84 293 1.0 2.0 0.00 0.00 0.00 56 1011.8
20260831233050 85 293 0.0 4.0 0.00 0.00 0.00 55 1011.7
20260831231605 86 309 2.0 4.0 0.00 0.00 0.00 53 1011.7
20260831230058 86 334 1.0 7.0 0.00 0.00 0.00 53 1011.7
20260831224553 87 308 2.0 6.0 0.00 0.00 0.00 51 1011.7
20260831223050 88 347 1.0 4.0 0.00 0.00 0.00 51 1011.6
20260831221602 87 283 1.0 5.0 0.00 0.00 0.00 50 1011.5
20260831220112 88 301 1.0 3.0 0.00 0.00 0.00 49 1011.2
20260831214550 88 288 0.0 6.0 0.00 0.00 0.00 50 1011.2
20260831213047 88 276 1.0 5.0 0.00 0.00 0.00 50 1011.0
20260831211609 88 262 1.0 7.0 0.00 0.00 0.00 49 1011.1
20260831210053 88 343 0.0 3.0 0.00 0.00 0.00 50 1011.1
20260831204549 88 294 1.0 5.0 0.00 0.00 0.00 49 1011.1
20260831203058 88 310 3.0 7.0 0.00 0.00 0.00 49 1011.1
20260831201553 88 266 3.0 6.0 0.00 0.00 0.00 47 1011.3
20260831200056 88 255 2.0 5.0 0.00 0.00 0.00 49 1011.1
20260831194627 87 274 2.0 7.0 0.00 0.00 0.00 49 1010.9
20260831193051 87 329 2.0 7.0 0.00 0.00 0.00 48 1010.8
20260831191548 87 251 3.0 8.0 0.00 0.00 0.00 49 1010.9
20260831190110 87 316 2.0 6.0 0.00 0.00 0.00 48 1010.9
20260831184613 87 297 3.0 7.0 0.00 0.00 0.00 52 1010.7
20260831183105 87 346 2.0 9.0 0.00 0.00 0.00 53 1010.8
20260831181556 86 289 4.0 10.0 0.00 0.00 0.00 55 1010.8
20260831180056 86 342 4.0 10.0 0.00 0.00 0.00 55 1011.2
20260831174557 85 335 3.0 5.0 0.00 0.00 0.00 66 1011.2
20260831173059 84 331 3.0 5.0 0.00 0.00 0.00 69 1011.3
20260831171555 84 338 2.0 5.0 0.00 0.00 0.00 73 1011.3
20260831170058 84 317 2.0 6.0 0.00 0.00 0.00 74 1011.2
20260831164554 83 299 2.0 5.0 0.00 0.00 0.00 75 1011.1
20260831163057 83 326 3.0 7.0 0.00 0.00 0.00 75 1011.0
20260831161601 82 323 1.0 4.0 0.00 0.00 0.00 76 1010.7
20260831160055 81 3 2.0 3.0 0.00 0.00 0.00 78 1010.8
20260831154628 81 23 3.0 6.0 0.00 0.00 0.00 79 1010.9
20260831153100 81 314 0.0 4.0 0.00 0.00 0.00 79 1010.8
20260831151604 80 290 2.0 5.0 0.00 0.00 0.00 81 1010.6
20260831150056 79 299 1.0 5.0 0.00 0.00 0.00 82 1010.3
20260831144628 78 270 1.0 4.0 0.00 0.00 0.00 84 1010.0
20260831143055 77 295 2.0 5.0 0.00 0.00 0.00 85 1009.8
20260831141556 76 310 2.0 4.0 0.00 0.00 0.00 85 1009.7
20260831140105 75 267 1.0 5.0 0.00 0.00 0.00 87 1009.5
20260831134603 74 290 0.0 3.0 0.00 0.00 0.00 88 1009.4
20260831133058 73 244 1.0 3.0 0.00 0.00 0.00 89 1009.2
20260831131558 73 251 1.0 2.0 0.00 0.00 0.00 91 1009.2
20260831130054 72 0 0.0 1.0 0.00 0.00 0.00 92 1009.0
20260831124550 71 250 0.0 2.0 0.00 0.00 0.00 92 1008.9
20260831123100 71 193 0.0 2.0 0.00 0.00 0.00 93 1008.7
20260831121604 71 205 0.0 1.0 0.00 0.00 0.00 92 1008.7
20260831120052 70 0 0.0 0.0 0.00 0.00 0.00 92 1008.6
20260831114551 70 0 0.0 0.0 0.00 0.00 0.00 92 1008.3
20260831113100 70 0 0.0 1.0 0.00 0.00 0.00 92 1008.2
20260831111611 71 221 0.0 1.0 0.00 0.00 0.00 91 1008.1
20260831110131 71 0 0.0 1.0 0.00 0.00 0.00 91 1007.7
20260831104603 72 199 0.0 1.0 0.00 0.00 0.00 91 1007.5
20260831103056 72 248 0.0 1.0 0.00 0.00 0.00 91 1007.7
20260831101559 72 222 1.0 2.0 0.00 0.00 0.00 91 1007.6
20260831100056 72 209 0.0 1.0 0.00 0.00 0.00 91 1007.7
20260831094559 72 0 0.0 2.0 0.00 0.00 0.00 90 1007.6
20260831093057 72 192 1.0 3.0 0.00 0.00 0.00 90 1007.6
20260831091555 72 194 1.0 2.0 0.00 0.00 0.00 89 1007.6
20260831090048 72 190 1.0 2.0 0.00 0.00 0.00 89 1007.5
20260831084606 73 176 1.0 2.0 0.00 0.00 0.00 89 1007.5
20260831083101 73 181 2.0 4.0 0.00 0.00 0.00 88 1007.5
20260831081618 73 197 2.0 5.0 0.00 0.00 0.00 88 1007.4
20260831080052 73 198 2.0 6.0 0.00 0.00 0.00 87 1007.3
20260831074602 73 200 1.0 4.0 0.00 0.00 0.00 87 1007.6
20260831073138 73 201 1.0 4.0 0.00 0.00 0.00 87 1007.4
20260831071551 73 200 1.0 5.0 0.00 0.00 0.00 87 1007.5
20260831064601 73 195 2.0 5.0 0.00 0.00 0.00 86 1007.8